Skip Page Navigation
NASA JPL Caltech
NASA Logo - Jet Propulsion Laboratory + View the NASA Portal
+ Near-Earth Object (NEO) Program
Search JPL
JPL Home Earth Solar System Stars & Galaxies Technology
JPL Solar System Dynamics
BODIES ORBITS EPHEMERIDES TOOLS PHYSICAL DATA DISCOVERY FAQ SITE MAP
JPL Small-Body Database Browser
Search: [ help ]  
114239 Bermarmi (2002 WN)
Classification: Main-belt Asteroid          SPK-ID: 2114239
Ephemeris | Orbit Diagram | Orbital Elements | Physical Parameters | Discovery Circumstances | Close-Approach Data ]

[ show orbit diagram ]
Orbital Elements at Epoch 2456800.5 (2014-May-23.0) TDB
Reference: JPL 4 (heliocentric ecliptic J2000)
 Element Value Uncertainty (1-sigma)   Units 
e .1285710424033726 8.5474e-08  
a 2.625588094215554 4.7206e-08 AU
q 2.288013496020376 2.4064e-07 AU
i 11.69728335407765 1.2899e-05 deg
node 288.9723759021177 4.1462e-05 deg
peri 266.5591002643164 6.687e-05 deg
M 123.615255705947 5.826e-05 deg
tp 2456266.909745206782
(2012-Dec-05.40974521)
0.00024623 JED
period 1553.954571614555
4.25
4.1908e-05
1.147e-07
d
yr
n .2316670040269973 6.2477e-09 deg/d
Q 2.963162692410732 5.3275e-08 AU
  Orbit Determination Parameters
   # obs. used (total)      237  
   data-arc span      4688 days (12.84 yr)  
   first obs. used      2001-08-10  
   last obs. used      2014-06-11  
   planetary ephem.      DE431  
   SB-pert. ephem.      SB431-BIG16  
   condition code      0  
   fit RMS      .53876  
   data source      ORB  
   producer      Otto Matic  
   solution date      2014-Jul-14 14:59:00  

Additional Information
 Earth MOID = 1.32357 AU 
 T_jup = 3.361 
[ show covariance matrix ]

Ephemeris | Orbit Diagram | Orbital Elements | Physical Parameters | Discovery Circumstances | Close-Approach Data ]

Physical Parameter Table
Parameter Symbol Value Units Sigma Reference Notes
absolute magnitude H 15.1 mag n/a MPO231994  

114239 Bermarmi           Discovered 2002 Nov. 21 by J. Young at Table Mountain Observatory.
This minor planet is named in memory of Bernard (1911-1988) and Mary (1912-1996), parents of the discoverer, and in honor of his brother Michael (b. 1937).
NOTE: some special characters may not display properly (any characters within {} are an attempt to place the proper accent above a character)
Reference: 20070601/MPCPages.arcLast Updated: 2007-06-06

[ show close-approach data ]
Alternate Designations
 2002 WN = 2001 QZ221 
Ephemeris | Orbit Diagram | Orbital Elements | Physical Parameters | Discovery Circumstances | Close-Approach Data ]
ABOUT SSD CREDITS/AWARDS PRIVACY/COPYRIGHT GLOSSARY LINKS
FirstGov 2014-Jul-23 03:58 UT
(server date/time)  
NASA Home Page
Site Manager:   Donald K. Yeomans
Webmaster  Alan B. Chamberlin